Location: Aniagüita
(10.0946°N, 66.9708°W)
Time: 16:49:31
(UTC+00:00)

Delta 202 - Pass Details

Date: 30 June 2022
Orbit: 781 x 2713 km, 18.5° (Epoch: 06 August)

Event Time Altitude Azimuth Distance (km) Brightness Sun altitude
Rises 23:42:29 0° 261° (W) 3,354 7.8 -11.9°
Reaches altitude 10° 23:45:02 10° 264° (W) 2,347 7.0 -12.5°
Maximum altitude 23:50:17 64° 346° (NNW) 861 3.9 -13.6°
Drops below altitude 10° 23:55:56 10° 68° (ENE) 2,525 5.8 -14.9°
Enters shadow 23:56:30 - 69° (ENE) 2,748 6.0 -15.0°
